Wind_Speed
41 43 42 41 40 40 37 35 34 34 35 39 43 43 39 37 36 31 29 33 36 35 33 29 26 25 22 20 21 21 20 20 20 21 23 24 24 24 25 26 25 24 23 23 24 24 23 22 22 23 25 26 27 27 29 32 34 36 39 41 41 40 42 44 43 45 47 48 45 43 43 43 41 39 38 37 36 36 32 27 23 24 26 28 30 32 34
39 45 45 43 42 40 38 36 35 34 36 39 41 41 39 38 38 34 32 35 35 34 32 29 27 25 22 22 24 24 25 25 23 23 25 25 26 27 28 28 27 26 26 26 25 23 22 22 24 26 27 29 29 30 33 36 38 39 40 41 40 40 41 43 44 46 49 47 42 40 41 41 41 40 40 39 37 37 36 32 28 28 29 28 29 31 33
38 46 46 44 41 39 37 37 35 33 33 35 38 40 39 39 40 39 38 39 36 33 34 33 31 29 27 28 29 29 29 27 25 25 26 27 29 30 31 31 30 29 30 30 27 23 23 25 28 29 30 31 32 34 38 42 43 43 41 39 38 38 40 42 44 45 44 41 39 39 40 40 40 38 36 35 35 39 43 40 36 36 35 30 29 31 33
37 45 49 45 39 37 38 39 36 32 32 34 37 39 40 40 40 40 41 43 40 36 37 38 36 34 33 32 32 32 32 29 26 27 29 30 32 33 33 33 32 33 34 33 29 25 26 28 31 32 33 34 35 37 41 43 44 44 42 40 38 39 40 41 41 41 40 39 38 38 38 39 39 35 32 30 33 36 38 38 37 37 34 30 29 31 32
36 43 49 45 37 36 40 41 39 36 35 36 37 38 40 39 38 37 38 40 40 39 40 41 39 37 35 35 35 34 31 28 27 29 31 32 33 33 34 34 34 35 37 36 32 30 31 33 34 35 35 35 36 38 41 42 43 44 43 41 40 40 41 43 44 40 36 36 37 37 37 37 35 32 31 34 37 34 32 33 33 33 31 29 30 31 32
34 40 46 44 41 40 38 36 38 39 39 39 39 40 41 40 39 37 36 37 38 39 41 42 41 39 38 37 36 33 29 28 30 32 34 35 34 33 34 35 36 37 39 38 34 34 37 38 38 38 35 34 36 39 41 43 43 44 43 42 41 41 42 43 40 34 32 35 36 37 36 35 31 29 31 36 37 33 30 31 31 30 28 28 30 32 33
34 37 41 44 47 47 39 34 36 39 42 45 45 43 44 43 42 40 38 38 40 39 39 40 41 41 41 40 38 37 34 33 33 35 37 36 34 34 36 37 37 38 40 39 37 38 41 42 42 41 37 36 39 41 43 43 44 44 44 44 43 43 43 42 35 30 33 36 36 36 37 35 31 28 30 32 31 29 28 29 28 27 26 28 31 32 34
35 37 38 41 46 47 43 41 41 41 44 48 50 48 46 46 45 43 41 42 43 43 42 41 39 40 40 40 39 40 41 40 39 40 39 37 36 37 38 38 38 38 39 39 39 41 43 43 44 43 39 38 41 43 44 44 44 45 45 45 44 43 43 42 37 34 36 37 37 38 37 33 28 27 29 28 27 27 27 26 25 25 26 29 31 33 34
37 37 36 38 42 45 46 46 47 46 46 49 53 53 50 47 45 44 42 41 42 43 44 43 40 38 37 36 36 37 39 40 41 41 40 39 40 40 38 38 38 39 38 37 39 42 43 43 44 43 42 43 46 47 46 45 45 45 44 45 44 42 42 42 39 35 35 36 38 38 35 29 27 29 29 27 26 26 26 24 24 25 27 30 32 33 34
39 38 36 37 42 46 48 48 49 49 49 51 54 55 54 52 47 45 44 42 41 41 41 42 42 39 37 37 36 36 37 37 38 39 39 39 40 40 40 39 40 40 37 37 40 44 44 44 45 45 47 50 51 49 47 45 45 45 45 45 44 43 43 43 40 37 36 36 37 37 33 29 29 31 31 26 26 27 26 24 24 26 28 31 31 32 34
41 41 39 37 39 44 47 48 50 51 51 50 48 48 51 52 49 47 45 42 43 44 41 40 41 40 39 40 40 40 38 38 38 38 38 40 41 42 43 44 43 41 39 40 44 45 45 46 47 47 50 52 50 47 45 45 45 46 46 46 45 45 44 43 42 41 39 38 37 34 31 29 32 35 34 30 29 29 28 26 26 29 32 32 31 33 37
42 43 44 43 41 41 42 43 45 48 50 49 44 42 45 47 46 45 43 40 41 43 40 37 37 39 40 40 41 40 38 37 37 37 38 40 42 43 45 45 43 41 42 45 46 46 47 49 49 51 53 51 47 45 45 45 47 48 48 47 46 45 44 43 43 42 39 37 34 32 30 31 34 37 36 33 32 33 32 30 28 29 31 31 33 40 39
42 41 44 47 47 46 43 42 42 43 45 45 44 44 45 45 42 40 39 37 37 38 36 36 37 39 40 41 41 41 40 39 40 40 41 43 43 44 44 44 43 44 45 45 46 47 48 49 50 51 51 47 45 45 46 47 48 48 47 46 45 43 42 42 42 40 37 35 33 32 34 35 36 37 35 33 33 35 33 29 26 27 30 32 38 41 34
44 43 43 45 47 49 48 47 46 46 43 41 41 42 44 45 41 37 35 35 36 36 37 38 39 40 40 39 39 39 40 41 43 44 46 47 46 45 44 45 46 48 48 48 49 50 49 49 49 47 44 43 43 45 47 48 48 46 45 44 43 42 42 42 41 40 37 35 35 35 36 37 39 38 34 32 33 31 27 25 28 33 35 37 41 38 30
45 46 46 46 45 46 47 48 47 48 47 44 41 40 41 43 43 42 41 40 39 40 41 40 41 42 43 42 41 40 40 42 44 46 48 50 49 49 49 50 52 54 55 55 55 54 52 49 47 44 42 43 44 46 48 48 46 44 42 42 41 41 42 42 41 40 39 38 38 38 38 39 39 35 30 29 28 25 24 28 35 39 38 40 44 40 35
47 45 46 48 48 47 46 46 46 46 48 48 46 43 42 43 45 46 46 45 44 44 45 45 46 46 47 47 46 45 44 46 47 48 49 51 53 55 56 58 61 59 55 52 51 51 49 47 44 43 44 46 46 47 46 44 42 41 41 41 41 41 42 42 42 41 41 41 41 40 37 34 32 29 27 26 27 28 32 37 40 40 39 41 43 40 37
51 48 46 48 50 50 48 46 45 45 48 50 51 50 48 47 47 48 48 49 49 49 49 50 49 48 49 50 51 51 50 50 50 50 51 53 55 57 58 60 59 52 43 41 43 45 45 45 44 44 45 45 45 43 42 41 40 40 40 40 40 41 42 43 43 44 44 42 40 37 32 28 26 28 28 29 32 36 37 37 38 40 41 41 39 38 40
52 53 52 52 52 52 52 50 47 45 46 48 50 52 53 53 53 53 52 52 54 54 53 54 54 53 53 53 52 51 50 48 48 49 52 54 56 56 53 51 47 40 36 37 40 41 42 44 44 44 43 42 40 39 38 39 39 39 39 40 41 42 43 44 45 44 42 39 35 31 29 28 29 31 32 34 38 39 38 38 41 42 42 41 41 41 43
47 50 52 53 52 51 50 50 48 45 45 46 47 48 49 50 52 54 55 55 57 58 59 59 60 60 59 58 55 53 51 50 50 51 53 54 53 51 48 43 39 36 36 37 39 39 40 41 41 41 40 38 38 37 37 37 38 38 39 41 41 42 43 44 45 43 39 37 34 32 32 34 35 34 34 37 39 39 39 42 45 45 44 43 43 43 43
47 47 48 48 49 49 48 48 45 42 43 46 48 47 46 46 48 49 50 52 54 55 58 61 62 62 62 60 57 55 53 51 50 50 49 47 44 42 40 37 35 34 35 36 37 38 39 40 40 39 38 38 38 38 38 38 38 39 41 42 42 43 44 44 43 40 37 35 34 33 35 37 37 35 36 38 40 42 44 47 48 47 46 45 44 43 43
49 49 48 46 46 47 49 48 46 43 41 42 44 45 44 43 43 43 42 42 43 46 51 56 57 57 57 55 52 50 49 47 46 45 43 40 38 37 36 35 34 35 36 37 39 39 39 39 39 39 38 39 38 38 39 39 39 40 42 42 41 40 37 33 30 30 31 32 33 35 37 38 39 40 42 44 45 46 48 49 48 47 46 45 44 43 42
50 50 48 47 45 44 42 41 41 42 42 40 39 39 38 37 38 39 40 40 41 44 48 49 49 48 47 47 47 46 44 42 40 39 37 35 35 36 36 36 36 36 37 38 38 38 38 38 38 39 39 39 39 39 40 40 40 43 44 42 38 34 30 28 29 32 34 37 40 42 42 43 45 46 47 47 48 48 49 49 49 48 47 46 44 43 43
47 47 44 42 42 42 40 37 35 35 36 35 35 34 34 33 34 36 37 37 39 41 40 39 39 38 37 38 39 40 38 37 36 35 35 36 36 36 35 35 35 35 36 36 37 38 38 39 39 40 40 40 40 41 41 41 42 44 43 41 39 37 37 39 41 41 41 43 45 46 46 47 47 46 47 47 48 48 48 49 49 49 47 45 43 43 44
43 43 39 33 31 32 34 34 32 30 29 29 29 29 30 31 32 34 34 35 36 37 35 35 35 35 35 35 35 36 35 35 35 35 35 35 34 32 31 32 33 34 35 36 38 39 40 40 40 40 41 41 42 42 43 43 44 45 45 44 43 43 44 45 45 45 45 46 46 46 46 45 45 45 45 45 46 47 49 49 48 47 45 43 43 44 44
38 39 38 34 29 27 27 28 29 29 29 29 30 30 31 32 33 34 35 37 38 39 38 37 35 34 33 32 32 32 32 31 30 31 31 31 32 32 32 33 35 36 37 38 39 40 41 41 41 41 42 43 44 45 46 46 46 46 47 47 47 47 46 46 46 45 44 44 43 43 44 44 44 44 44 44 46 47 47 45 43 42 41 42 43 45 45
28 29 31 31 29 28 27 28 29 30 31 31 31 32 32 33 33 33 35 37 38 39 38 37 35 33 31 30 30 30 30 30 31 32 33 33 34 34 35 35 36 37 38 39 41 42 42 42 42 43 44 45 46 47 48 48 48 47 47 47 48 48 47 46 45 44 44 44 44 44 44 44 43 43 44 45 45 43 41 39 39 40 41 43 45 45 45
25 25 27 27 28 28 29 29 30 31 31 31 32 32 33 34 35 35 36 37 38 37 37 36 34 32 31 32 33 34 34 35 36 36 36 36 37 37 38 38 38 38 39 41 42 43 44 45 45 45 46 47 48 48 49 49 48 47 47 47 47 47 47 46 45 45 45 45 44 44 44 44 43 43 43 42 39 37 36 37 39 40 42 43 44 43 43
25 26 26 27 28 29 29 30 31 32 32 33 33 34 34 35 36 36 37 37 37 36 36 35 35 35 35 36 36 36 36 37 37 36 36 37 38 39 40 40 40 40 40 41 43 44 45 46 47 47 48 49 49 49 48 48 47 47 47 47 46 46 46 46 45 45 45 44 43 43 43 43 42 41 38 36 34 35 37 39 40 40 41 43 45 45 44
24 25 25 26 26 27 27 28 29 30 31 32 33 33 33 33 34 34 34 35 35 34 34 34 35 35 36 36 35 35 35 36 37 37 37 38 39 41 42 43 44 44 43 43 44 45 46 47 48 48 49 49 49 49 49 48 47 46 46 46 46 45 45 45 45 45 45 44 43 43 43 42 41 39 37 36 38 40 41 42 42 40 41 44 45 46 46
24 24 25 25 26 26 27 27 27 27 28 29 30 31 31 31 31 31 32 32 32 32 32 33 33 34 34 34 34 35 36 37 39 40 41 42 42 43 43 44 45 46 46 46 46 46 46 46 46 47 47 47 48 49 49 48 46 45 46 46 46 45 44 44 44 44 43 42 42 42 42 42 41 41 40 41 43 44 45 45 44 42 43 44 46 47 48
25 25 25 25 26 26 26 27 27 28 29 30 31 31 31 31 31 31 32 32 33 34 34 35 35 36 36 37 38 39 40 40 41 42 43 44 44 44 44 45 45 46 47 48 48 47 47 46 45 45 46 47 48 48 46 44 42 42 43 43 43 43 43 43 42 41 41 41 42 42 42 42 42 42 43 45 46 47 45 44 44 43 43 45 46 47 47
25 25 25 25 25 26 27 29 30 31 32 33 33 33 33 33 33 33 34 34 35 37 37 37 38 39 39 40 40 41 42 42 42 43 43 44 44 45 46 46 46 47 47 48 49 49 48 47 47 45 43 42 41 40 39 38 36 37 38 39 39 40 40 41 42 43 44 44 43 42 42 42 43 45 46 47 45 43 42 43 44 44 44 44 44 43 43
25 25 25 26 27 29 30 31 31 32 32 33 33 33 34 34 34 35 35 35 36 37 37 38 38 39 39 40 40 41 41 42 43 44 45 45 46 46 47 47 47 47 48 48 49 48 48 48 47 45 41 39 39 39 37 36 37 39 42 44 43 43 43 44 45 46 45 43 41 40 41 43 45 46 47 46 44 41 42 44 44 43 42 42 41 40 41
26 27 28 30 31 31 32 32 32 32 32 33 33 34 34 35 35 35 36 36 36 37 37 37 38 38 39 40 40 41 42 43 43 44 45 46 46 47 47 48 48 48 48 48 48 48 48 48 48 46 45 44 44 44 43 43 43 45 46 47 47 46 46 45 45 44 42 40 40 40 41 44 45 46 46 45 44 43 42 42 40 40 39 39 39 40 40
31 32 32 32 32 32 31 31 32 32 33 33 34 35 36 36 36 37 37 37 37 38 38 38 39 39 40 41 42 43 43 44 45 45 45 46 46 46 47 48 48 49 49 49 49 49 49 49 49 48 47 46 45 46 46 47 47 48 49 49 49 48 46 44 43 42 41 41 40 40 41 43 44 44 44 44 43 42 40 39 38 38 38 38 39 39 39
32 32 32 31 31 31 32 32 32 33 34 35 36 37 37 37 37 37 37 38 38 38 39 39 39 40 40 41 41 42 43 44 45 46 46 46 47 47 48 49 49 50 50 49 48 47 47 47 47 47 47 46 46 47 48 47 48 48 48 48 47 45 44 43 42 41 40 40 40 40 41 41 41 41 40 39 38 37 37 36 35 35 36 37 37 37 36
30 30 30 31 31 31 32 32 32 33 33 34 35 35 36 36 36 37 37 37 37 37 38 38 39 40 40 41 42 42 44 45 47 48 49 49 49 50 50 51 52 52 50 48 47 48 49 47 44 42 42 43 44 46 47 48 49 48 47 45 44 43 43 42 41 40 39 38 38 38 38 37 36 35 34 33 33 33 33 33 34 34 35 36 36 35 35
29 29 29 29 29 29 29 30 30 30 31 31 32 33 33 33 34 35 35 36 36 36 37 39 40 41 43 44 44 45 46 47 49 51 51 51 51 51 51 52 53 51 48 44 42 41 42 41 40 40 40 41 43 45 47 48 47 45 43 42 42 42 41 40 39 37 36 36 35 34 33 32 32 32 31 31 31 31 32 32 33 34 34 35 35 34 33
26 26 26 26 26 27 27 28 28 29 29 30 30 31 31 32 32 33 34 36 37 38 39 40 42 43 45 46 46 47 48 48 49 50 51 51 50 49 49 49 50 49 47 43 38 35 36 39 40 39 40 42 44 45 45 44 43 42 42 41 41 40 38 36 35 33 32 32 31 31 31 31 31 32 32 31 31 32 32 32 33 33 34 35 35 34 33
25 25 25 25 26 26 27 27 28 28 29 29 30 30 31 32 33 34 35 36 37 38 38 39 40 41 42 44 44 45 45 46 46 48 48 48 46 45 45 47 47 46 45 42 39 37 37 40 40 38 37 38 40 41 40 39 39 39 39 38 36 35 33 31 31 30 29 29 30 30 31 32 32 32 31 31 31 31 31 32 33 33 34 34 34 33 33
24 24 25 25 25 25 26 26 27 28 28 29 29 30 31 32 33 33 33 33 33 33 33 33 34 35 37 38 39 40 41 41 42 43 43 43 44 44 45 45 45 44 40 38 37 36 37 39 39 37 34 32 31 31 32 32 32 32 32 31 30 30 29 29 29 28 28 29 30 31 31 31 31 30 30 30 30 31 31 32 32 33 33 33 33 33 33
23 24 24 24 24 25 26 27 28 29 29 30 30 30 30 30 29 28 28 27 27 28 28 29 30 32 33 34 35 35 36 36 37 38 39 40 41 41 38 37 38 37 35 32 33 36 38 36 33 29 27 26 25 25 26 26 26 27 28 28 28 28 28 28 28 28 29 30 30 30 30 30 30 30 29 29 30 30 31 32 32 33 33 32 32 31 31
23 23 24 24 25 26 27 28 29 30 30 30 30 29 27 25 23 23 23 24 24 25 26 27 28 29 29 29 29 30 30 31 32 33 33 33 32 30 28 28 28 29 29 29 29 30 33 33 30 27 25 25 25 24 24 24 25 26 26 26 27 27 27 27 28 28 28 29 29 29 29 29 28 27 27 27 28 29 31 32 33 33 33 33 32 31 31
23 24 25 26 26 27 28 28 29 29 29 28 26 24 22 21 20 20 21 22 23 23 23 24 25 25 25 25 26 26 27 26 26 26 26 26 24 23 23 24 24 25 27 28 28 27 27 27 28 27 26 25 24 24 24 24 24 25 25 25 26 27 27 27 27 27 27 27 28 28 27 25 24 23 23 24 26 28 30 31 32 33 33 33 32 31 30
23 24 25 25 26 26 27 27 27 26 25 23 21 20 19 19 19 20 20 21 21 21 21 22 23 22 23 24 24 24 24 23 22 21 21 21 19 18 18 20 21 23 26 28 30 31 30 27 25 24 24 24 24 24 24 24 24 25 25 26 26 26 26 26 26 26 26 26 25 23 21 20 20 20 21 22 24 26 28 29 31 32 33 33 33 32 31
22 22 22 23 24 24 24 24 23 22 21 20 19 18 18 19 19 19 19 19 19 19 20 21 21 20 21 21 21 20 20 19 19 18 18 17 17 16 17 18 20 22 24 27 28 30 29 26 24 23 24 24 24 24 24 25 25 26 26 26 26 26 26 25 25 24 23 22 20 19 18 18 19 20 21 22 23 25 26 27 28 29 31 32 32 32 31
21 21 22 22 22 22 21 21 21 20 20 19 18 18 18 18 19 19 19 19 20 20 20 20 20 20 20 20 20 19 19 18 17 16 16 16 17 17 17 18 18 19 21 23 24 24 23 22 22 23 23 24 24 25 25 25 26 26 26 26 26 25 24 23 21 20 19 19 19 19 19 19 20 20 21 21 22 24 25 26 26 26 27 28 30 31 31
23 23 22 22 21 19 19 19 19 20 20 19 18 18 18 19 19 20 21 21 21 20 20 20 20 21 22 22 21 21 20 19 18 16 16 16 16 16 16 16 17 17 18 19 19 20 20 21 22 23 24 24 25 25 25 25 25 25 25 24 24 23 21 19 18 17 17 19 21 22 22 21 21 21 21 22 22 22 23 24 24 24 24 25 26 28 29
23 22 21 20 19 19 19 19 19 19 19 19 18 18 19 19 20 21 21 21 21 20 20 20 21 21 22 22 22 22 21 21 20 19 18 18 18 17 17 17 17 18 18 19 20 20 21 22 22 23 24 24 24 24 24 23 23 22 22 21 21 19 18 17 17 18 19 21 22 24 25 24 23 22 21 22 22 22 22 23 24 24 24 23 23 24 26
20 19 18 18 19 19 19 19 18 18 18 17 17 18 19 19 20 20 21 21 21 21 21 21 21 21 21 21 21 21 21 21 20 20 19 19 19 19 19 19 19 20 20 21 21 21 22 22 22 23 23 22 22 21 21 20 20 20 20 19 19 19 19 19 20 21 22 23 23 24 25 26 25 24 23 23 23 24 23 23 24 24 24 24 23 23 24
16 16 16 17 18 18 18 18 17 16 16 16 17 17 18 19 20 20 20 20 20 20 20 20 21 21 21 20 20 20 20 20 20 20 19 19 19 19 19 19 20 20 20 21 21 21 20 20 20 21 21 21 21 20 20 20 20 20 20 20 20 20 21 22 22 23 24 25 26 26 27 27 27 27 26 25 25 25 25 25 25 25 25 25 24 24 24
15 15 15 15 16 16 17 16 15 15 15 16 16 17 17 18 19 19 19 19 19 19 19 20 20 20 19 19 19 19 18 18 18 18 18 18 18 18 19 19 19 19 19 19 19 20 20 20 20 21 22 23 23 23 23 22 22 23 23 23 24 24 24 25 26 26 27 27 28 28 29 29 29 29 29 29 28 27 27 27 27 27 27 27 26 25 25
Wind_Direction
213 207 206 204 204 206 209 212 211 212 217 220 221 226 233 237 239 243 243 244 248 252 255 256 258 263 269 270 269 268 267 270 274 276 278 282 289 294 298 300 301 304 306 306 305 303 297 292 293 295 293 292 293 295 299 301 301 299 297 298 299 301 303 304 305 302 293 285 282 281 279 278 275 275 277 280 280 278 277 277 285 296 296 290 289 291 292
214 207 205 204 205 208 210 212 212 211 216 221 224 229 235 238 242 246 246 248 250 249 251 257 262 265 266 265 267 268 269 272 275 277 281 286 291 295 298 299 300 302 303 304 303 301 298 299 302 301 295 293 293 298 302 305 304 301 299 300 301 303 305 304 303 301 295 289 286 286 286 284 281 280 279 278 278 278 278 278 283 297 304 297 291 293 294
214 208 207 205 205 210 212 211 211 211 213 220 225 230 234 237 241 244 244 247 248 244 245 251 255 258 260 264 269 273 274 276 276 277 282 287 289 291 293 294 297 300 302 303 300 297 299 301 301 298 295 294 296 300 303 305 305 304 303 303 302 303 304 304 305 303 295 290 291 291 291 289 287 284 280 279 283 284 284 281 279 289 302 301 294 295 297
213 207 207 207 208 213 215 211 208 209 212 219 225 229 232 235 239 243 244 244 243 242 245 250 252 255 259 263 266 270 275 277 276 277 281 283 283 285 288 292 296 298 301 301 298 296 300 301 301 299 298 298 299 301 303 303 303 303 304 305 305 305 304 305 307 304 294 289 297 303 303 301 294 283 278 288 298 296 288 281 277 284 295 297 295 295 296
212 205 207 209 209 215 217 210 206 209 214 219 226 230 231 233 236 240 243 243 241 240 242 246 251 255 258 260 263 269 275 276 274 275 277 277 278 283 287 290 293 296 298 298 297 300 305 305 304 304 301 299 299 300 302 303 303 303 304 305 306 306 306 307 307 306 299 297 304 309 309 309 303 288 282 293 302 297 283 275 277 285 291 292 293 295 296
210 204 207 209 210 216 220 214 209 211 216 221 226 229 230 231 234 237 240 241 240 239 240 244 250 256 257 258 262 266 266 264 264 266 269 273 277 283 286 288 291 294 295 295 296 302 306 305 303 302 301 300 301 303 304 303 302 302 303 304 305 304 305 306 305 305 305 305 306 305 302 301 300 293 289 293 294 288 275 271 277 285 289 292 295 296 296
209 205 206 210 215 221 227 225 218 216 219 222 226 230 232 231 233 235 235 235 235 236 238 242 248 252 253 255 259 259 256 256 259 263 269 274 278 281 283 286 289 290 290 291 294 300 304 305 303 300 299 301 304 305 304 302 301 301 301 302 302 302 303 305 303 301 303 304 304 303 301 296 292 291 293 292 288 281 274 274 281 288 293 297 298 296 296
210 208 208 213 220 224 228 231 227 224 225 224 224 227 229 229 229 230 230 230 231 232 234 238 242 246 249 252 255 255 256 259 263 266 271 275 277 278 280 283 285 284 285 287 291 296 301 303 302 300 299 301 305 304 301 300 299 299 299 300 301 302 303 302 302 302 304 305 304 302 300 296 290 291 295 294 288 282 280 281 288 294 299 298 295 294 297
213 211 212 218 223 224 226 230 230 227 226 225 224 224 224 224 226 227 229 231 232 231 233 236 239 242 245 250 252 254 258 261 263 267 272 276 278 278 277 277 276 277 279 281 286 292 297 298 299 299 299 300 302 301 298 296 297 297 298 299 300 301 301 300 300 303 306 306 304 300 298 294 289 291 296 293 286 281 281 285 291 295 296 294 293 296 299
214 215 217 222 224 225 226 229 232 231 228 226 226 226 223 220 220 223 228 233 233 233 233 234 235 237 240 245 250 254 258 261 264 269 272 274 274 272 270 269 270 272 275 277 282 288 292 293 294 297 299 299 299 297 294 294 295 296 296 297 298 298 299 299 301 305 306 305 300 296 296 294 289 292 295 289 281 279 281 285 288 288 289 291 294 301 304
212 215 217 220 222 224 226 228 231 234 235 231 229 229 227 224 221 220 221 225 227 229 233 235 235 236 239 245 251 256 260 265 268 270 271 271 271 270 270 270 269 270 273 278 282 287 290 291 292 293 298 299 296 292 290 292 293 294 294 295 295 296 298 300 303 305 308 308 301 294 292 288 287 293 295 290 285 283 284 283 281 283 287 289 297 306 307
209 213 216 219 221 224 225 227 227 231 235 235 232 231 231 232 235 233 230 230 232 232 235 240 242 242 243 246 251 256 261 266 268 269 269 270 271 273 274 273 270 271 276 280 283 286 287 289 291 292 295 295 290 286 288 290 291 293 293 293 294 296 298 301 304 306 310 311 302 292 288 289 291 295 296 293 291 289 288 286 284 289 293 293 303 312 307
207 211 215 219 224 228 229 231 232 232 235 237 235 233 235 239 245 246 244 247 249 246 245 248 250 249 248 247 250 254 258 262 264 265 267 268 269 270 271 273 273 274 277 279 282 285 286 289 292 293 291 287 282 282 285 288 290 291 292 293 294 296 299 301 303 306 310 310 302 291 288 291 295 296 293 290 291 291 289 286 287 298 301 300 309 315 307
206 211 215 217 223 230 232 233 236 238 239 240 237 236 238 241 243 244 244 247 248 247 247 248 250 251 250 249 252 255 258 260 261 262 264 265 268 269 270 271 273 274 276 278 280 283 286 289 291 290 284 279 278 280 283 286 288 290 290 292 294 295 297 298 300 303 305 306 301 293 288 289 294 295 290 287 289 289 285 280 287 300 306 307 311 313 302
206 209 214 217 219 226 230 233 236 240 241 242 240 238 238 239 240 241 242 243 244 245 246 248 250 251 250 250 252 255 259 262 262 262 263 264 267 269 270 271 273 274 275 276 278 281 285 286 285 283 280 278 278 280 281 284 286 287 288 290 292 293 294 296 297 300 301 302 299 293 286 286 292 293 290 288 288 284 280 284 293 302 306 307 307 304 297
204 206 211 216 219 224 229 233 235 238 241 242 241 240 239 238 239 240 240 242 243 245 247 249 250 251 251 251 252 253 258 262 264 265 266 266 268 269 271 274 274 273 273 274 276 280 282 281 279 279 279 279 278 279 280 282 283 285 286 288 290 291 293 295 297 300 300 300 300 295 287 285 288 288 288 288 285 283 286 292 297 301 302 303 303 300 297
201 205 209 215 219 224 229 234 236 237 240 242 241 242 242 243 243 243 242 242 243 245 248 251 253 255 255 255 255 255 259 263 267 269 271 272 272 273 273 274 273 271 271 273 276 278 279 279 278 279 279 279 278 278 278 279 281 283 285 287 289 291 294 296 298 299 299 299 299 294 285 281 282 281 281 284 286 289 292 294 297 299 299 300 301 298 296
206 208 213 217 220 224 228 232 234 235 238 242 243 244 245 246 246 246 247 247 246 247 249 252 254 256 258 259 260 259 261 265 269 272 274 275 274 274 274 272 271 270 272 274 275 276 277 278 278 279 278 278 278 277 278 279 281 284 286 288 290 292 294 295 297 298 297 296 293 282 273 276 280 277 275 280 287 292 293 294 297 299 299 299 299 296 295
218 214 215 216 217 221 225 229 232 233 235 238 242 244 246 246 247 248 248 249 250 250 251 253 255 256 258 261 263 263 264 268 271 273 275 274 273 271 269 270 271 272 273 273 273 274 276 277 278 278 278 279 279 280 280 281 283 284 286 288 291 293 295 296 296 295 292 290 284 273 269 278 282 278 278 284 288 289 290 294 298 300 299 299 298 297 297
235 230 226 220 215 216 220 223 225 229 232 235 238 241 245 248 250 251 252 253 255 256 256 257 258 258 259 262 265 265 265 266 267 269 271 271 268 265 264 266 270 271 272 272 273 274 274 275 276 277 278 279 281 281 282 283 285 287 288 290 294 296 297 296 296 293 289 285 281 278 280 286 287 286 287 289 288 287 289 294 297 298 298 298 297 297 299
243 243 241 234 224 220 221 222 222 225 232 238 240 242 245 249 252 255 258 262 264 264 263 261 261 261 261 262 263 264 263 263 264 267 269 268 265 264 265 267 268 270 271 273 274 274 274 274 274 276 277 279 280 281 282 284 286 289 290 293 297 301 301 300 298 294 291 288 287 287 289 291 291 290 289 289 288 290 292 295 296 296 297 297 298 299 300
244 246 246 244 239 235 235 235 232 232 237 244 247 249 251 254 256 259 263 265 265 264 263 263 263 261 259 257 257 258 259 261 265 267 268 268 268 268 268 269 270 271 273 273 273 273 273 273 274 276 277 279 280 281 282 284 287 289 290 293 296 297 297 296 295 292 290 289 289 289 289 291 291 291 291 292 293 294 295 296 296 296 297 298 297 298 300
239 242 244 244 243 241 243 245 244 244 247 250 252 254 256 257 259 261 263 263 262 260 260 263 264 264 262 261 260 261 263 266 269 270 270 271 271 270 269 269 270 271 272 272 272 273 273 274 275 277 278 278 279 280 282 285 287 288 289 290 290 287 285 286 288 289 289 289 288 289 290 292 293 293 294 294 294 296 298 299 298 297 297 295 295 298 300
229 232 234 236 236 236 238 241 243 245 247 249 250 253 254 254 255 257 258 259 260 261 262 267 271 273 274 273 271 269 268 270 271 271 272 273 273 272 271 270 271 271 271 271 272 273 274 274 275 277 278 279 280 282 284 286 287 287 288 289 289 286 284 285 286 286 288 288 288 289 291 292 292 292 293 295 297 299 300 299 296 295 294 293 295 297 298
223 226 228 231 234 237 240 242 243 244 245 246 250 254 257 258 259 261 261 262 264 267 269 273 276 278 278 276 273 269 267 268 269 270 272 272 272 271 270 270 270 270 270 271 271 272 273 274 275 277 279 281 283 284 286 286 286 287 287 288 288 288 287 287 287 288 289 290 290 290 291 291 292 295 298 301 301 300 297 295 294 293 293 294 295 295 295
226 230 232 234 238 243 245 246 248 250 251 253 256 258 261 263 264 265 265 265 266 269 271 274 276 277 275 272 267 264 264 266 269 271 271 271 270 270 269 268 269 270 271 272 273 274 276 277 279 280 282 283 284 285 285 286 285 285 285 285 286 287 288 289 291 292 293 294 294 294 294 296 299 302 304 304 301 297 295 295 295 294 294 294 292 292 292
236 238 239 239 242 245 247 248 250 252 253 255 257 258 259 260 261 263 264 266 267 268 269 270 271 271 271 269 267 265 266 268 270 271 272 271 271 272 273 274 274 274 275 276 277 278 279 280 281 282 282 282 282 283 283 283 283 283 283 284 285 286 287 289 291 293 294 295 296 297 298 300 303 304 304 302 299 297 296 296 296 296 296 294 292 292 293
239 240 241 242 243 245 246 247 248 250 251 253 254 256 257 259 260 262 264 266 268 268 267 267 267 268 269 271 271 271 272 273 273 274 275 276 277 278 279 280 279 279 278 279 279 279 280 281 282 282 282 282 282 282 282 283 283 284 284 284 285 286 288 289 290 291 291 292 294 295 297 300 301 299 297 296 296 296 297 298 300 300 297 294 294 295 294
239 240 241 242 243 243 245 246 246 248 250 253 255 257 259 260 262 263 264 266 268 269 268 268 268 269 270 270 271 272 274 276 277 277 277 277 277 278 279 279 279 279 279 278 278 278 279 280 281 282 283 283 284 284 284 284 284 284 284 285 286 287 287 287 287 288 289 289 290 292 295 296 295 290 288 289 292 295 299 303 302 298 293 291 292 292 291
236 238 239 241 241 242 244 246 248 251 253 255 256 258 258 259 260 262 263 264 266 268 269 270 270 270 270 270 271 272 273 275 276 276 276 276 275 275 275 276 277 278 278 278 278 278 278 279 281 281 282 283 283 283 283 283 283 284 285 286 286 285 285 286 287 288 289 289 290 292 294 293 289 285 284 287 292 298 302 302 296 291 288 288 288 289 290
236 238 240 243 245 246 248 250 251 252 253 254 255 256 258 260 261 263 264 265 266 267 268 269 269 270 270 271 272 273 273 273 274 273 274 274 275 275 275 275 276 277 278 279 279 279 279 279 279 279 281 281 281 281 282 283 284 284 285 285 285 285 285 287 288 289 290 291 292 292 292 289 285 283 285 290 295 300 300 295 288 287 287 287 287 288 290
238 240 242 244 245 246 247 249 250 251 252 254 256 259 261 263 264 264 264 264 265 266 267 268 269 270 270 271 272 273 273 274 274 273 273 273 274 274 275 275 276 276 277 278 278 279 279 279 279 281 282 282 282 283 283 281 279 280 282 284 286 287 286 286 286 287 289 291 291 290 288 285 284 286 289 293 295 295 290 286 286 287 288 288 288 290 292
240 242 243 243 243 244 246 248 251 254 256 257 259 261 262 263 263 264 264 264 265 265 266 267 268 269 270 270 271 271 272 272 272 272 273 273 274 274 275 275 275 276 276 277 278 279 280 281 281 282 280 278 278 279 278 275 275 278 280 283 285 286 285 285 286 288 290 291 291 288 286 284 285 288 289 290 290 287 283 282 284 286 287 288 291 293 295
241 243 245 247 249 251 253 255 258 260 262 262 263 264 265 265 266 267 268 268 268 267 267 267 268 268 269 270 270 271 271 271 271 271 272 273 274 274 275 275 276 276 276 277 278 279 280 281 281 281 280 278 277 275 273 274 278 282 282 282 283 284 284 285 287 289 291 292 291 288 286 285 285 285 286 286 286 284 283 283 284 286 288 291 294 295 297
242 244 247 250 252 255 257 259 261 262 264 266 267 268 269 270 270 271 271 270 270 269 269 269 269 269 269 270 270 271 271 272 271 271 271 271 272 272 273 274 275 275 276 277 279 280 281 281 281 281 280 280 278 275 274 277 281 282 281 281 281 282 283 285 288 290 290 290 289 287 285 284 284 283 284 284 284 283 284 285 286 287 288 290 292 294 295
245 247 248 250 251 253 254 256 258 260 261 263 264 265 266 267 267 267 268 268 268 269 269 269 270 269 269 269 269 270 271 271 271 271 271 271 272 272 273 273 274 275 277 278 280 281 283 283 283 283 281 279 276 274 275 278 279 278 278 278 279 281 284 286 288 288 288 287 286 285 284 284 284 285 285 285 284 284 285 286 287 287 288 290 291 292 292
250 252 253 254 254 255 255 256 256 257 257 258 259 261 262 264 265 266 267 268 269 271 271 272 272 272 272 272 272 272 272 273 273 274 274 274 275 276 276 276 276 277 278 280 283 285 284 283 281 279 277 274 272 271 272 273 274 275 275 276 278 281 284 285 286 286 286 286 285 285 286 287 288 289 289 289 288 287 287 287 288 289 289 290 290 289 289
253 255 255 255 255 255 255 255 255 256 256 258 259 261 263 265 267 268 270 272 273 274 275 275 275 275 275 276 276 275 275 276 276 277 277 277 278 278 278 278 278 279 279 281 284 284 280 277 273 271 269 268 268 269 270 271 273 274 276 278 280 282 284 285 285 286 285 286 287 287 288 290 290 291 291 291 290 290 289 289 290 290 289 289 289 289 288
251 252 253 253 255 256 257 258 260 261 261 262 263 264 264 266 267 268 270 272 273 275 276 277 278 278 278 278 278 279 279 278 278 278 278 278 278 278 278 277 277 277 277 275 273 268 264 264 267 271 273 271 270 271 273 274 274 275 278 280 282 284 284 285 286 286 286 287 288 289 290 291 291 291 291 291 290 291 291 290 290 289 288 287 287 287 287
251 253 255 257 259 260 261 262 263 263 264 264 265 266 267 268 269 271 273 275 276 277 278 279 280 280 281 281 281 281 281 280 279 278 278 278 277 276 274 273 272 272 272 270 264 258 256 261 269 277 282 279 274 272 273 274 275 276 278 280 281 283 284 284 285 286 287 288 289 290 290 290 289 290 291 292 292 292 292 291 290 289 288 287 287 288 288
253 255 258 260 262 263 264 264 264 265 266 266 268 269 272 274 277 278 279 279 279 280 281 283 284 285 286 286 286 285 285 283 281 279 277 276 274 272 271 271 270 268 267 265 260 256 257 266 275 281 284 282 277 273 272 274 276 277 279 280 281 282 283 284 286 287 288 288 288 289 289 289 290 291 292 293 293 292 291 290 289 289 288 288 289 289 289
256 258 260 262 264 265 267 268 269 270 272 273 276 278 280 280 280 280 280 280 282 284 287 289 291 291 291 290 290 289 288 286 283 281 279 276 273 271 270 271 269 266 263 263 263 260 258 262 270 277 279 279 279 278 276 276 278 280 280 282 282 283 284 286 287 288 288 288 288 288 289 290 291 293 293 294 293 293 292 292 291 291 291 291 291 291 290
260 262 265 267 268 269 271 273 275 277 279 281 283 283 281 278 276 276 278 281 285 288 290 292 292 292 291 290 291 293 293 291 288 286 283 279 274 271 272 275 272 264 258 259 264 263 258 256 262 272 278 280 280 280 279 279 280 281 281 282 283 284 285 286 287 287 287 287 288 289 290 292 295 297 298 299 299 298 297 297 296 295 294 293 292 291 290
264 266 269 271 273 276 278 280 282 283 285 285 284 281 277 273 273 276 280 283 285 286 288 290 291 291 289 288 291 295 298 297 292 287 281 277 274 274 276 276 270 260 254 254 260 267 270 270 270 274 277 278 278 279 280 280 280 280 281 282 283 283 284 285 285 286 287 288 289 291 294 297 300 303 306 307 306 304 302 300 297 296 294 292 290 289 288
266 270 273 276 280 283 285 286 287 287 286 284 280 276 274 274 275 278 282 283 284 285 287 291 292 291 289 289 291 294 297 298 297 291 285 281 281 282 282 276 267 259 256 255 259 267 274 276 273 272 273 276 278 279 280 280 280 281 281 281 282 282 283 284 285 286 287 288 289 292 295 299 303 307 310 311 310 309 306 303 300 297 293 291 289 288 287
271 275 278 281 284 286 286 287 287 285 282 277 273 271 272 274 276 278 281 283 284 286 290 293 295 294 294 295 298 300 300 301 301 299 293 289 287 286 284 279 272 266 263 261 262 265 270 272 273 274 277 280 281 282 282 283 283 283 283 283 284 284 285 286 287 287 286 286 288 292 297 301 304 307 309 310 311 311 312 311 308 304 298 293 290 288 287
277 278 280 281 281 281 282 281 280 275 270 266 264 265 268 272 274 276 278 281 284 286 289 292 294 295 295 296 299 302 303 304 304 302 299 296 293 289 285 282 278 273 269 267 267 268 270 273 276 279 281 282 283 284 285 285 286 286 287 288 289 289 289 289 288 286 284 285 288 292 296 299 301 302 304 306 308 311 314 315 316 314 309 301 294 289 287
279 278 277 276 275 273 272 271 270 266 263 261 263 267 270 274 276 277 278 281 283 286 287 287 288 290 293 294 295 296 298 299 299 298 296 294 293 292 290 288 285 281 278 276 276 276 277 279 280 282 283 284 285 287 288 289 290 291 292 291 291 290 289 286 283 282 283 286 289 292 294 295 297 299 301 303 306 309 312 315 318 319 317 311 302 294 289
278 275 271 268 264 263 264 266 267 267 265 266 268 271 273 274 275 276 278 280 283 285 286 286 286 287 288 290 291 291 290 290 289 289 289 290 290 290 290 288 286 285 284 283 283 283 284 284 285 285 287 288 290 291 292 293 293 293 291 290 289 287 284 282 280 281 284 286 289 291 293 294 295 297 299 301 303 306 309 312 315 317 318 317 312 303 295
271 266 263 260 259 261 265 268 268 268 268 270 272 273 274 274 275 276 278 280 282 284 285 286 287 286 286 287 287 287 288 288 287 288 288 288 288 287 287 287 287 287 286 286 286 287 287 288 288 289 290 291 292 293 293 293 292 290 289 287 284 282 280 280 281 283 285 286 286 287 288 289 290 292 294 296 299 302 305 308 310 312 314 316 315 312 305
264 262 262 261 260 262 265 267 267 267 268 271 272 274 276 278 279 281 282 283 284 285 285 285 285 286 286 286 286 286 287 288 289 290 290 289 289 289 289 289 288 288 288 289 289 289 290 290 291 291 291 291 291 292 292 291 290 288 287 284 282 279 278 278 279 281 283 283 283 283 283 284 285 287 289 291 294 297 300 303 305 306 308 309 311 311 310
262 261 260 259 258 259 261 263 265 268 270 271 273 275 278 281 283 284 285 286 286 287 286 285 285 285 285 285 286 286 287 287 288 289 290 291 291 291 291 290 290 289 288 288 289 289 290 291 291 291 291 292 292 292 291 290 288 286 285 283 282 280 279 279 279 279 280 280 281 281 282 282 283 284 286 288 290 292 295 297 299 301 302 303 304 305 305
Height
5810 5815 5819 5823 5825 5827 5829 5831 5832 5835 5836 5838 5840 5841 5844 5846 5846 5848 5851 5852 5852 5854 5857 5858 5860 5862 5863 5864 5865 5866 5867 5868 5869 5869 5870 5871 5871 5872 5872 5872 5872 5873 5873 5873 5873 5873 5872 5872 5872 5871 5871 5871 5871 5870 5869 5868 5867 5864 5861 5858 5857 5856 5854 5851 5850 5847 5843 5842 5843 5843 5841 5839 5837 5837 5837 5836 5836 5837 5836 5835 5834 5833 5832 5831 5829 5828 5827
5806 5811 5815 5819 5821 5823 5825 5827 5829 5831 5833 5834 5837 5840 5842 5843 5843 5846 5848 5848 5849 5852 5854 5856 5857 5858 5860 5861 5861 5862 5863 5864 5865 5866 5866 5867 5868 5868 5869 5869 5869 5869 5870 5870 5870 5870 5869 5868 5868 5868 5867 5866 5866 5865 5863 5862 5861 5859 5857 5855 5854 5853 5851 5847 5846 5843 5838 5837 5839 5839 5837 5835 5834 5833 5833 5832 5832 5833 5832 5831 5830 5829 5828 5826 5825 5824 5822
5800 5806 5812 5815 5817 5819 5822 5824 5826 5828 5829 5831 5834 5836 5838 5840 5841 5843 5844 5845 5847 5850 5852 5853 5854 5855 5856 5857 5858 5859 5860 5861 5862 5863 5863 5864 5865 5864 5865 5865 5865 5866 5866 5866 5866 5866 5865 5865 5864 5864 5863 5862 5860 5859 5858 5856 5854 5853 5852 5851 5850 5849 5846 5843 5841 5838 5833 5834 5836 5835 5833 5831 5830 5829 5830 5830 5829 5829 5827 5826 5825 5824 5823 5821 5820 5819 5818
5794 5800 5806 5811 5814 5817 5817 5819 5822 5823 5825 5827 5829 5832 5834 5836 5838 5839 5840 5841 5844 5848 5849 5849 5850 5852 5853 5854 5855 5856 5856 5858 5859 5859 5860 5861 5861 5861 5861 5861 5862 5862 5862 5862 5862 5862 5862 5861 5860 5859 5857 5856 5855 5854 5853 5851 5849 5847 5846 5846 5845 5843 5841 5839 5837 5834 5831 5832 5833 5832 5830 5828 5826 5825 5826 5826 5825 5824 5822 5821 5820 5819 5818 5816 5815 5814 5813
5791 5796 5802 5808 5812 5812 5811 5813 5816 5818 5820 5823 5826 5829 5831 5832 5834 5836 5837 5839 5842 5845 5846 5846 5847 5849 5850 5852 5852 5853 5854 5854 5855 5856 5856 5856 5857 5857 5858 5858 5858 5858 5858 5858 5858 5858 5857 5856 5855 5854 5853 5852 5851 5850 5848 5846 5844 5842 5841 5841 5840 5838 5836 5834 5832 5830 5829 5829 5829 5828 5826 5823 5820 5820 5821 5821 5820 5818 5816 5815 5814 5814 5813 5812 5811 5810 5809
5789 5793 5799 5804 5806 5804 5805 5809 5813 5814 5816 5819 5822 5824 5825 5828 5830 5832 5834 5836 5839 5841 5842 5843 5845 5846 5847 5848 5849 5850 5850 5851 5851 5852 5852 5853 5854 5854 5854 5855 5855 5855 5854 5854 5854 5853 5852 5852 5851 5850 5849 5848 5847 5845 5843 5841 5839 5838 5837 5837 5836 5834 5832 5830 5828 5826 5825 5824 5823 5821 5820 5817 5814 5814 5815 5814 5813 5811 5810 5809 5809 5808 5808 5807 5807 5806 5804
5788 5791 5794 5798 5798 5799 5802 5806 5808 5810 5812 5814 5816 5818 5820 5823 5826 5829 5831 5832 5834 5837 5839 5841 5842 5843 5843 5845 5845 5846 5846 5847 5848 5848 5849 5850 5851 5851 5851 5851 5851 5851 5850 5850 5849 5848 5847 5847 5846 5845 5844 5843 5842 5841 5839 5838 5836 5834 5833 5833 5832 5829 5827 5825 5824 5822 5820 5818 5816 5815 5812 5810 5809 5808 5808 5807 5806 5805 5805 5804 5804 5804 5804 5803 5803 5802 5801
5784 5787 5790 5792 5793 5796 5799 5800 5801 5804 5806 5809 5811 5814 5816 5818 5821 5824 5827 5828 5830 5833 5835 5837 5838 5839 5839 5841 5841 5842 5843 5844 5845 5845 5846 5847 5847 5847 5847 5847 5847 5846 5846 5846 5845 5843 5843 5842 5841 5840 5840 5840 5839 5837 5836 5834 5832 5831 5829 5828 5827 5826 5823 5820 5818 5817 5816 5814 5811 5808 5806 5806 5806 5805 5803 5802 5801 5801 5800 5800 5800 5799 5799 5800 5799 5798 5796
5781 5784 5786 5788 5790 5792 5792 5793 5795 5798 5800 5803 5806 5809 5811 5813 5817 5820 5823 5825 5827 5829 5831 5832 5834 5835 5836 5837 5838 5839 5840 5841 5841 5842 5842 5843 5843 5843 5843 5842 5842 5841 5841 5841 5840 5839 5839 5839 5838 5837 5836 5835 5835 5834 5832 5830 5828 5827 5825 5824 5822 5821 5819 5816 5814 5813 5812 5810 5807 5804 5803 5803 5803 5801 5799 5798 5797 5796 5796 5795 5795 5795 5796 5795 5794 5793 5790
5779 5782 5783 5784 5786 5786 5786 5788 5791 5793 5795 5798 5802 5805 5807 5808 5811 5815 5818 5821 5823 5825 5826 5827 5829 5831 5833 5834 5835 5836 5837 5837 5838 5838 5838 5838 5838 5838 5837 5837 5836 5836 5836 5836 5835 5835 5835 5835 5835 5834 5832 5831 5830 5829 5827 5825 5824 5822 5821 5819 5818 5816 5814 5812 5810 5809 5808 5806 5803 5800 5799 5799 5798 5796 5795 5794 5793 5792 5791 5791 5791 5791 5791 5790 5788 5787 5784
5775 5779 5781 5782 5782 5782 5783 5785 5787 5789 5791 5793 5799 5803 5803 5805 5807 5810 5812 5815 5817 5820 5822 5823 5825 5828 5829 5830 5831 5832 5833 5834 5834 5834 5834 5834 5833 5833 5832 5832 5832 5831 5831 5831 5831 5832 5832 5831 5830 5830 5828 5827 5825 5824 5822 5820 5819 5817 5815 5814 5813 5811 5809 5807 5805 5804 5803 5801 5798 5796 5796 5795 5793 5791 5790 5789 5788 5787 5786 5786 5786 5786 5786 5785 5783 5781 5778
5771 5775 5777 5779 5780 5779 5780 5782 5784 5786 5787 5790 5796 5799 5800 5804 5808 5808 5810 5812 5813 5815 5818 5820 5822 5824 5826 5827 5827 5828 5829 5829 5830 5830 5829 5828 5828 5828 5827 5827 5827 5827 5827 5827 5827 5828 5827 5827 5826 5825 5824 5822 5820 5819 5817 5815 5813 5811 5810 5809 5808 5806 5804 5803 5801 5799 5798 5797 5794 5792 5792 5790 5789 5787 5785 5784 5783 5782 5782 5782 5782 5782 5781 5779 5778 5775 5771
5767 5770 5773 5776 5777 5777 5778 5780 5782 5783 5785 5790 5794 5796 5798 5802 5805 5806 5808 5810 5810 5812 5815 5816 5818 5819 5821 5822 5823 5823 5824 5825 5825 5825 5824 5823 5823 5823 5823 5822 5822 5822 5823 5823 5823 5823 5822 5822 5821 5820 5818 5817 5815 5814 5812 5810 5808 5807 5805 5804 5803 5802 5800 5798 5796 5794 5793 5792 5790 5788 5786 5784 5783 5781 5780 5779 5779 5778 5778 5778 5778 5777 5776 5774 5772 5768 5765
5762 5765 5768 5771 5773 5774 5775 5778 5779 5781 5785 5788 5790 5792 5795 5799 5801 5802 5804 5806 5807 5809 5810 5811 5813 5814 5816 5817 5818 5818 5819 5820 5820 5820 5819 5818 5818 5818 5818 5817 5817 5818 5818 5818 5818 5817 5817 5816 5815 5814 5813 5812 5811 5809 5807 5806 5804 5802 5801 5799 5798 5797 5795 5793 5791 5789 5788 5787 5785 5783 5781 5780 5778 5776 5775 5774 5774 5774 5774 5774 5773 5772 5771 5768 5766 5764 5762
5758 5761 5763 5766 5769 5770 5772 5775 5777 5780 5783 5785 5787 5789 5792 5795 5797 5798 5800 5802 5803 5804 5805 5806 5807 5809 5810 5812 5812 5812 5813 5814 5814 5815 5814 5814 5813 5813 5813 5812 5812 5813 5813 5813 5813 5812 5812 5811 5810 5809 5808 5807 5806 5804 5803 5802 5800 5798 5796 5794 5793 5791 5789 5787 5786 5784 5783 5781 5780 5778 5777 5775 5774 5771 5770 5770 5771 5770 5769 5769 5768 5767 5766 5764 5762 5760 5758
5753 5756 5759 5762 5765 5767 5769 5772 5775 5777 5779 5781 5784 5786 5788 5790 5793 5794 5795 5797 5798 5799 5800 5801 5802 5803 5804 5806 5806 5807 5808 5808 5809 5809 5809 5809 5809 5809 5809 5808 5807 5807 5807 5807 5807 5806 5806 5805 5804 5804 5803 5802 5801 5800 5798 5797 5795 5793 5791 5790 5788 5785 5783 5781 5780 5778 5777 5776 5774 5772 5771 5770 5769 5767 5766 5767 5767 5767 5766 5764 5762 5761 5760 5760 5759 5755 5753
5747 5751 5755 5759 5761 5764 5766 5769 5771 5774 5775 5777 5780 5781 5783 5785 5788 5789 5790 5791 5792 5794 5795 5795 5796 5798 5799 5800 5801 5802 5802 5803 5803 5803 5803 5804 5804 5804 5804 5803 5802 5801 5801 5801 5801 5800 5800 5799 5798 5798 5798 5797 5796 5795 5793 5791 5790 5788 5786 5784 5782 5780 5778 5776 5774 5773 5771 5770 5768 5766 5764 5765 5765 5764 5763 5763 5763 5763 5762 5760 5758 5757 5755 5755 5755 5751 5747
5744 5748 5751 5754 5757 5759 5762 5764 5767 5769 5771 5773 5774 5776 5778 5780 5782 5783 5785 5786 5787 5789 5789 5790 5791 5792 5794 5795 5796 5796 5796 5797 5797 5797 5797 5797 5797 5797 5797 5797 5796 5795 5795 5795 5795 5794 5794 5793 5792 5792 5792 5792 5791 5789 5787 5786 5784 5782 5780 5779 5777 5775 5773 5771 5769 5767 5766 5764 5763 5762 5760 5760 5760 5760 5759 5759 5758 5757 5757 5755 5754 5752 5750 5749 5749 5746 5742
5744 5746 5748 5750 5753 5755 5757 5760 5762 5765 5767 5768 5769 5770 5772 5775 5776 5778 5779 5781 5782 5783 5784 5785 5786 5786 5788 5789 5790 5790 5792 5793 5793 5792 5792 5791 5790 5790 5791 5791 5790 5790 5789 5789 5789 5788 5788 5787 5787 5787 5786 5785 5784 5783 5781 5780 5778 5776 5774 5773 5771 5770 5769 5766 5763 5762 5761 5759 5757 5758 5757 5756 5755 5755 5755 5755 5753 5752 5751 5749 5747 5746 5744 5742 5741 5738 5736
5740 5742 5744 5747 5749 5751 5753 5756 5758 5760 5762 5763 5764 5765 5767 5769 5771 5773 5775 5775 5776 5778 5778 5779 5780 5781 5782 5784 5784 5785 5787 5788 5788 5787 5786 5785 5785 5785 5785 5785 5784 5784 5784 5783 5783 5783 5783 5782 5782 5781 5780 5779 5778 5777 5775 5774 5773 5771 5768 5767 5766 5765 5763 5761 5758 5755 5755 5754 5754 5754 5754 5753 5753 5753 5752 5751 5749 5747 5745 5744 5742 5740 5738 5736 5733 5731 5728
5736 5738 5741 5744 5746 5747 5749 5750 5753 5754 5755 5757 5759 5760 5762 5764 5766 5768 5769 5770 5772 5773 5773 5773 5774 5775 5777 5778 5779 5780 5780 5781 5781 5781 5780 5780 5780 5780 5779 5779 5778 5778 5778 5778 5778 5778 5778 5778 5777 5776 5775 5773 5773 5772 5770 5769 5767 5765 5762 5760 5760 5759 5757 5756 5753 5751 5750 5751 5752 5752 5751 5751 5750 5749 5747 5745 5744 5742 5740 5738 5737 5734 5732 5729 5726 5723 5721
5732 5734 5736 5739 5742 5743 5745 5746 5748 5749 5751 5753 5754 5756 5758 5760 5762 5763 5764 5765 5767 5767 5767 5768 5769 5770 5771 5772 5773 5773 5774 5775 5775 5775 5774 5774 5775 5775 5774 5774 5773 5773 5774 5773 5773 5773 5773 5773 5772 5770 5769 5768 5768 5767 5765 5764 5762 5759 5756 5755 5755 5754 5753 5752 5751 5750 5749 5749 5748 5747 5746 5745 5743 5742 5740 5738 5737 5735 5733 5732 5730 5728 5725 5722 5719 5717 5714
5728 5730 5732 5735 5737 5740 5741 5743 5745 5746 5747 5749 5751 5752 5754 5756 5757 5758 5760 5761 5762 5762 5763 5765 5765 5765 5765 5766 5767 5767 5768 5768 5768 5768 5769 5769 5769 5769 5769 5769 5769 5769 5769 5768 5768 5767 5768 5767 5766 5765 5764 5764 5763 5761 5760 5759 5756 5753 5751 5751 5751 5750 5750 5748 5747 5746 5745 5744 5742 5741 5739 5738 5736 5735 5733 5732 5730 5729 5727 5725 5723 5721 5718 5715 5713 5711 5709
5722 5725 5728 5731 5734 5736 5738 5740 5741 5743 5745 5747 5748 5749 5751 5752 5753 5754 5756 5756 5757 5757 5759 5760 5761 5760 5760 5761 5761 5761 5761 5762 5762 5762 5763 5763 5764 5764 5763 5763 5764 5764 5764 5763 5762 5762 5762 5762 5761 5760 5759 5758 5756 5755 5753 5752 5750 5748 5747 5746 5745 5744 5744 5742 5741 5740 5739 5737 5736 5734 5733 5731 5730 5728 5727 5725 5724 5722 5720 5718 5716 5714 5712 5710 5708 5706 5704
5718 5720 5723 5727 5730 5733 5735 5737 5738 5740 5742 5743 5745 5745 5746 5747 5749 5750 5750 5751 5752 5752 5753 5755 5756 5756 5756 5756 5756 5756 5757 5757 5757 5758 5758 5759 5759 5758 5758 5758 5758 5759 5759 5758 5757 5756 5756 5756 5755 5755 5753 5751 5750 5748 5747 5746 5745 5743 5742 5740 5738 5737 5737 5736 5735 5734 5733 5731 5729 5728 5726 5724 5723 5721 5719 5718 5716 5715 5713 5711 5709 5708 5706 5705 5703 5701 5699
5713 5717 5719 5723 5726 5728 5730 5733 5735 5736 5737 5739 5739 5740 5741 5742 5743 5744 5745 5746 5747 5748 5749 5750 5751 5751 5751 5752 5752 5753 5753 5753 5753 5753 5753 5754 5753 5753 5753 5753 5754 5754 5753 5753 5752 5751 5750 5750 5749 5749 5747 5745 5743 5742 5740 5739 5738 5737 5736 5734 5732 5731 5729 5729 5728 5727 5726 5724 5722 5720 5718 5716 5715 5713 5712 5711 5710 5709 5707 5706 5704 5703 5702 5700 5698 5695 5693
5711 5714 5716 5719 5721 5723 5725 5727 5729 5731 5732 5733 5734 5735 5736 5737 5738 5739 5740 5741 5743 5744 5744 5745 5746 5746 5747 5747 5748 5748 5748 5748 5748 5748 5748 5748 5748 5747 5747 5747 5748 5748 5748 5747 5746 5745 5744 5743 5742 5741 5740 5738 5737 5736 5734 5733 5731 5730 5729 5727 5726 5724 5723 5722 5720 5719 5718 5716 5715 5713 5711 5710 5709 5708 5707 5707 5705 5704 5703 5702 5700 5699 5696 5693 5691 5689 5686
5708 5711 5713 5715 5717 5718 5719 5721 5723 5725 5726 5727 5728 5729 5731 5732 5733 5734 5735 5736 5737 5738 5739 5739 5740 5741 5741 5741 5741 5741 5741 5741 5741 5742 5742 5742 5741 5741 5741 5741 5741 5741 5741 5741 5740 5738 5737 5735 5735 5733 5732 5731 5729 5728 5727 5726 5724 5723 5722 5720 5719 5717 5716 5715 5714 5712 5711 5710 5709 5708 5707 5706 5705 5704 5704 5703 5701 5700 5699 5697 5696 5694 5691 5686 5684 5682 5680
5705 5707 5709 5710 5712 5713 5714 5716 5718 5720 5721 5723 5724 5725 5726 5727 5728 5729 5730 5731 5731 5732 5733 5733 5734 5734 5735 5735 5735 5735 5735 5735 5735 5735 5736 5736 5735 5735 5734 5734 5733 5733 5734 5734 5733 5731 5730 5728 5727 5726 5725 5723 5722 5721 5719 5718 5717 5715 5714 5714 5713 5711 5710 5709 5707 5707 5706 5705 5704 5704 5702 5702 5701 5700 5699 5698 5696 5695 5694 5692 5690 5689 5686 5681 5678 5677 5675
5702 5703 5705 5706 5708 5710 5712 5714 5715 5717 5717 5718 5719 5720 5722 5723 5723 5724 5725 5726 5727 5727 5727 5728 5728 5729 5729 5729 5730 5730 5730 5730 5729 5729 5729 5729 5729 5728 5728 5727 5726 5725 5725 5725 5725 5724 5723 5722 5722 5720 5719 5717 5715 5713 5711 5710 5709 5708 5707 5707 5707 5706 5704 5703 5702 5701 5701 5700 5699 5699 5698 5697 5696 5694 5693 5692 5690 5689 5689 5686 5682 5681 5680 5677 5673 5671 5670
5700 5701 5703 5704 5706 5708 5710 5711 5712 5713 5713 5714 5715 5716 5718 5719 5719 5720 5721 5722 5723 5723 5723 5723 5724 5724 5724 5724 5724 5724 5724 5724 5723 5723 5722 5721 5721 5721 5720 5720 5720 5719 5718 5717 5717 5716 5716 5716 5715 5714 5712 5710 5708 5707 5705 5704 5703 5702 5701 5700 5700 5700 5699 5698 5697 5696 5695 5694 5694 5693 5692 5691 5690 5689 5687 5686 5685 5685 5683 5680 5675 5674 5673 5671 5668 5666 5665
5697 5699 5701 5702 5704 5705 5706 5707 5708 5709 5710 5711 5712 5713 5714 5715 5716 5716 5717 5718 5718 5718 5718 5718 5718 5718 5718 5719 5719 5718 5718 5717 5717 5716 5715 5715 5714 5714 5713 5713 5713 5712 5711 5711 5710 5709 5709 5708 5707 5707 5705 5704 5703 5702 5701 5699 5698 5696 5695 5694 5694 5694 5693 5692 5691 5691 5690 5689 5688 5687 5687 5686 5684 5683 5681 5681 5680 5680 5676 5672 5669 5668 5666 5664 5662 5661 5659
5694 5696 5697 5698 5700 5701 5702 5703 5704 5705 5706 5708 5709 5710 5710 5710 5711 5712 5712 5713 5713 5713 5713 5713 5712 5712 5712 5713 5712 5712 5712 5711 5710 5709 5708 5707 5707 5706 5706 5705 5705 5705 5705 5704 5703 5703 5702 5701 5700 5700 5699 5698 5697 5697 5695 5694 5692 5691 5690 5690 5689 5688 5687 5686 5685 5685 5684 5683 5682 5681 5681 5680 5678 5677 5675 5674 5673 5672 5669 5666 5664 5662 5660 5658 5657 5654 5652
5691 5692 5693 5694 5695 5697 5698 5699 5700 5701 5702 5702 5703 5704 5704 5704 5705 5706 5706 5706 5706 5706 5706 5706 5706 5706 5706 5705 5705 5705 5704 5704 5703 5702 5701 5700 5700 5699 5698 5698 5698 5698 5697 5697 5696 5696 5695 5695 5694 5693 5692 5691 5690 5690 5689 5687 5686 5686 5685 5684 5683 5682 5681 5680 5679 5679 5678 5677 5676 5675 5674 5673 5671 5669 5668 5667 5666 5664 5662 5659 5658 5655 5653 5651 5650 5648 5646
5688 5689 5690 5691 5692 5693 5694 5695 5696 5696 5696 5697 5697 5697 5698 5698 5699 5699 5699 5699 5699 5699 5699 5699 5699 5699 5699 5698 5698 5697 5697 5696 5696 5695 5694 5693 5693 5692 5692 5691 5691 5690 5690 5690 5690 5689 5688 5687 5687 5686 5685 5684 5683 5682 5681 5680 5679 5678 5677 5676 5676 5675 5674 5674 5674 5673 5672 5671 5670 5668 5667 5666 5664 5663 5661 5660 5659 5656 5654 5653 5651 5649 5647 5646 5644 5642 5641
5684 5686 5688 5689 5690 5690 5691 5691 5692 5692 5692 5692 5692 5692 5692 5692 5693 5693 5693 5693 5692 5692 5693 5693 5693 5693 5692 5692 5692 5691 5690 5689 5688 5687 5687 5686 5686 5685 5685 5685 5684 5683 5683 5683 5683 5682 5681 5679 5679 5678 5677 5677 5675 5674 5673 5673 5672 5671 5671 5670 5669 5669 5669 5668 5668 5667 5666 5664 5663 5662 5661 5659 5658 5656 5654 5653 5652 5650 5648 5647 5645 5644 5642 5641 5639 5638 5636
5681 5682 5684 5685 5685 5686 5686 5687 5687 5688 5688 5688 5688 5687 5687 5687 5687 5687 5687 5687 5687 5687 5687 5687 5686 5686 5685 5685 5685 5684 5684 5682 5681 5680 5679 5679 5678 5678 5678 5677 5676 5676 5676 5677 5676 5675 5673 5672 5671 5670 5669 5668 5667 5667 5666 5666 5665 5665 5665 5664 5664 5663 5663 5662 5662 5661 5659 5658 5657 5655 5654 5652 5651 5649 5648 5647 5646 5644 5643 5642 5640 5639 5637 5636 5634 5633 5631
5677 5678 5679 5680 5681 5681 5682 5682 5683 5683 5683 5683 5683 5683 5683 5683 5683 5682 5682 5682 5682 5682 5681 5680 5680 5679 5678 5678 5677 5677 5676 5675 5674 5672 5672 5671 5671 5670 5670 5669 5668 5668 5670 5671 5671 5669 5667 5664 5663 5662 5661 5660 5660 5660 5659 5659 5659 5659 5659 5659 5658 5657 5657 5656 5655 5654 5652 5651 5650 5648 5647 5646 5645 5644 5643 5642 5640 5639 5638 5636 5635 5633 5632 5630 5629 5627 5626
5673 5674 5675 5676 5676 5677 5677 5678 5678 5678 5679 5679 5679 5679 5679 5679 5679 5679 5678 5677 5677 5677 5676 5675 5674 5673 5672 5671 5670 5670 5669 5668 5666 5665 5664 5663 5663 5662 5661 5661 5660 5660 5661 5663 5665 5664 5662 5659 5656 5655 5655 5654 5653 5653 5653 5653 5653 5653 5653 5652 5651 5651 5650 5649 5648 5646 5645 5644 5643 5642 5641 5640 5639 5638 5637 5636 5635 5634 5632 5631 5629 5628 5626 5625 5624 5623 5622
5669 5670 5671 5672 5672 5673 5673 5674 5674 5674 5674 5674 5675 5675 5675 5675 5675 5674 5673 5673 5672 5672 5671 5670 5669 5668 5666 5665 5664 5663 5662 5660 5659 5657 5656 5656 5655 5654 5652 5651 5651 5652 5653 5654 5655 5657 5656 5654 5652 5650 5649 5648 5647 5647 5647 5648 5648 5648 5647 5646 5646 5645 5644 5643 5642 5641 5640 5639 5638 5638 5637 5636 5635 5633 5632 5631 5629 5628 5627 5625 5624 5622 5621 5620 5619 5618 5617
5666 5667 5667 5668 5669 5669 5669 5670 5670 5670 5670 5670 5670 5670 5670 5670 5669 5669 5668 5668 5667 5666 5665 5665 5663 5662 5660 5659 5658 5656 5655 5653 5651 5650 5649 5648 5647 5645 5644 5643 5644 5645 5646 5647 5649 5651 5651 5649 5647 5645 5644 5643 5642 5642 5642 5642 5642 5642 5642 5641 5641 5640 5639 5638 5637 5637 5636 5635 5634 5633 5632 5631 5630 5629 5627 5626 5625 5623 5622 5620 5619 5617 5616 5615 5614 5613 5612
5663 5664 5664 5665 5665 5665 5666 5666 5666 5666 5666 5666 5666 5666 5665 5665 5664 5664 5663 5663 5662 5661 5660 5659 5658 5656 5654 5653 5651 5650 5648 5646 5644 5643 5642 5641 5640 5639 5637 5637 5638 5639 5640 5642 5644 5645 5645 5644 5642 5640 5639 5638 5637 5637 5637 5637 5637 5637 5637 5636 5636 5635 5635 5634 5633 5633 5632 5631 5630 5629 5628 5626 5625 5624 5623 5621 5620 5618 5617 5615 5614 5612 5611 5610 5609 5608 5607
5660 5660 5661 5661 5661 5661 5661 5661 5661 5661 5661 5662 5662 5661 5661 5661 5660 5660 5659 5659 5658 5657 5655 5654 5653 5651 5650 5648 5647 5645 5643 5641 5639 5638 5637 5636 5635 5634 5633 5633 5633 5635 5636 5637 5638 5639 5638 5638 5638 5636 5635 5634 5634 5634 5634 5634 5634 5634 5633 5633 5632 5631 5631 5630 5629 5628 5628 5627 5625 5624 5623 5622 5620 5619 5618 5616 5615 5613 5611 5610 5609 5607 5606 5605 5604 5604 5602
5657 5657 5657 5657 5657 5657 5657 5657 5657 5657 5657 5657 5657 5657 5657 5657 5657 5656 5656 5655 5654 5653 5652 5651 5649 5648 5647 5645 5644 5642 5640 5638 5636 5634 5633 5632 5631 5630 5630 5629 5630 5631 5632 5633 5633 5633 5634 5634 5634 5633 5632 5632 5632 5632 5631 5631 5630 5630 5630 5629 5629 5628 5627 5626 5625 5625 5624 5622 5621 5619 5618 5617 5616 5614 5613 5612 5610 5608 5607 5605 5604 5602 5601 5600 5600 5599 5598
5655 5655 5655 5655 5655 5654 5654 5653 5653 5653 5653 5652 5653 5653 5653 5653 5653 5652 5651 5650 5650 5650 5649 5648 5646 5645 5644 5642 5640 5639 5637 5635 5633 5631 5630 5629 5628 5627 5627 5627 5627 5627 5628 5629 5630 5630 5630 5630 5630 5630 5629 5629 5629 5628 5628 5627 5627 5626 5626 5626 5625 5624 5623 5622 5621 5620 5619 5618 5617 5616 5615 5613 5612 5611 5610 5608 5607 5605 5603 5601 5600 5598 5597 5596 5595 5594 5594
5653 5652 5652 5652 5652 5651 5650 5650 5649 5649 5649 5649 5649 5649 5649 5649 5649 5649 5648 5647 5647 5647 5646 5645 5643 5642 5641 5639 5637 5636 5634 5632 5630 5629 5628 5627 5626 5626 5625 5625 5625 5625 5626 5626 5626 5626 5626 5626 5626 5626 5626 5625 5625 5625 5624 5624 5623 5622 5622 5621 5620 5619 5619 5618 5617 5616 5615 5614 5613 5612 5611 5610 5609 5608 5607 5605 5604 5602 5600 5598 5596 5594 5593 5591 5591 5590 5589
5649 5649 5649 5649 5648 5648 5647 5647 5647 5647 5646 5646 5646 5646 5646 5646 5646 5646 5645 5644 5643 5643 5643 5642 5640 5639 5637 5636 5635 5634 5632 5630 5628 5627 5626 5625 5624 5624 5623 5623 5623 5623 5623 5623 5623 5623 5623 5623 5623 5622 5622 5622 5621 5621 5620 5620 5619 5618 5617 5616 5615 5615 5614 5613 5612 5611 5611 5610 5609 5609 5608 5607 5606 5605 5604 5603 5601 5599 5597 5595 5593 5591 5589 5588 5587 5586 5585
5646 5646 5646 5646 5646 5645 5645 5645 5645 5644 5644 5644 5644 5644 5644 5643 5643 5643 5642 5641 5640 5640 5639 5638 5637 5636 5635 5633 5632 5631 5630 5628 5627 5626 5625 5624 5623 5622 5621 5621 5621 5621 5621 5621 5620 5620 5620 5620 5619 5619 5619 5618 5618 5617 5616 5615 5614 5614 5613 5612 5611 5610 5610 5609 5608 5608 5607 5607 5606 5605 5605 5604 5603 5602 5601 5600 5598 5597 5595 5593 5591 5589 5587 5585 5584 5582 5581
5642 5643 5643 5643 5643 5643 5643 5643 5643 5643 5642 5642 5642 5641 5641 5641 5640 5640 5639 5638 5637 5636 5636 5635 5634 5633 5632 5631 5629 5628 5627 5626 5625 5624 5623 5621 5620 5620 5619 5619 5618 5618 5618 5618 5617 5617 5617 5616 5616 5615 5615 5614 5613 5613 5612 5611 5610 5610 5609 5608 5607 5607 5606 5605 5605 5605 5604 5603 5603 5602 5601 5600 5599 5599 5598 5596 5595 5593 5592 5590 5588 5586 5585 5583 5581 5580 5578
5640 5640 5640 5640 5641 5641 5641 5641 5641 5641 5640 5640 5639 5639 5638 5638 5637 5637 5636 5635 5634 5633 5632 5631 5631 5630 5629 5628 5627 5625 5624 5623 5622 5621 5620 5619 5618 5617 5617 5616 5616 5615 5615 5614 5614 5613 5613 5613 5612 5611 5611 5610 5609 5609 5608 5607 5607 5606 5605 5605 5604 5603 5603 5602 5602 5601 5601 5600 5599 5598 5597 5596 5596 5595 5594 5593 5591 5590 5588 5587 5585 5584 5582 5580 5579 5577 5576
5638 5638 5638 5638 5638 5638 5638 5639 5639 5638 5638 5637 5636 5636 5635 5634 5634 5633 5632 5632 5631 5630 5629 5628 5627 5627 5626 5625 5624 5623 5622 5620 5619 5618 5617 5616 5615 5615 5614 5613 5613 5612 5611 5611 5610 5610 5609 5609 5608 5608 5607 5606 5606 5605 5605 5604 5603 5602 5601 5601 5600 5600 5599 5599 5598 5598 5597 5596 5596 5595 5594 5593 5592 5591 5590 5589 5588 5586 5585 5583 5582 5581 5579 5578 5576 5574 5573
5636 5636 5636 5636 5636 5636 5636 5636 5636 5635 5635 5634 5633 5632 5632 5631 5630 5629 5629 5628 5627 5626 5625 5625 5624 5623 5622 5621 5620 5619 5618 5617 5616 5615 5614 5613 5612 5611 5611 5610 5609 5609 5608 5608 5607 5606 5606 5605 5605 5604 5603 5602 5602 5601 5600 5600 5599 5598 5598 5597 5596 5596 5595 5595 5594 5594 5593 5592 5591 5590 5589 5588 5587 5586 5585 5584 5583 5582 5581 5579 5578 5577 5576 5575 5573 5571 5570